CZ-6A DEB

Satellite information

Favourite Embed

Satellite Type and Status

DEBRISIN ORBIT

Key statistics

Satellite CZ-6A DEB at a glance.

Uptime

1129

Days in orbit

Revolutions

≈ 14.2

Per day

Orbit

SSO

Sun Synchronous Orbit

Inclination

98.8

Latest

Satellite identification and parameters

Extended collection of information and parameters for CZ-6A DEB.

Object identification

Identified? True

Debris? True

Object name: CZ-6A DEB

International designator: 2022-151EC

Object number (NORAD): 54404

Object ID (CCSDS): 54404

Country: PEOPLES REPUBLIC OF CHINA (PRC)

Current information (Y/N): Y

RCS size: MEDIUM

Orbital parameters

Period: 101.184 minutes

Inclination: 98.768 deg

SMA: 7192.879 km

Apoapsis: 854.689 km

Periapsis: 774.798 km

RAAN: 2.5609 deg

Eccentricy: 0.0055535

Argument of periapsis: 161.4758 deg

Mean anomaly: 198.8458 deg

Mean motion: 14.23143377 rev/day

Mean motion (dot): 0.00001244 rev/day2

B* drag term: 0.00056124502 1/REarth

Two-line elements (TLE)

Creation date: Dec. 14, 2025, 3:07 a.m.

Reference frame: TEME

Reference center: EARTH

Epoch: Dec. 13, 2025, 1:31 p.m. UTC

TLE line 0: 0 CZ-6A DEB

TLE line 1: 1 54404U 22151EC 25347.56328539 .00001244 00000-0 56125-3 0 9993

TLE line 2: 2 54404 98.7680 2.5609 0055535 161.4758 198.8458 14.23143377159883

Live tracking on map

Real-time ground track for satellite CZ-6A DEB.

In-orbit conjunctions

A list of the most updated potential collisions computed for object CZ-6A DEB.

Target Orbit TCA Probability of collision Miss distance Type
SL-16 R/B LEO 2024-07-01 20:03:05 0.004513605 37.0 (m) ROCKET BODY

Associated space launch

Chinese satellite reported for atmospheric/ocean/environmental/spatial parameter research purposes, details TBD.

CZ-6A DEB was lifted into orbit during the mission ‘Long March 6A | Yunhai 3’, on board a Long March 6A space rocket.

The launch took place on Nov. 11, 2022, 10:52 p.m. from Launch Complex 9A.

For more information about the launch, click the button.

Launch to space Long March 6A | Yunhai 3
Long March 6A | Yunhai 3

Agency: N/A

Status: Launch Successful

Launch date: Nov. 11, 2022, 10:52 p.m. UTC

Rocket: Long March 6A

Launch pad: Launch Complex 9A

Location: Taiyuan Satellite Launch Center, People's Republic of China

...

Latest news about this satellite

There are no fresh news available about this satellite. Check back as we update our databases every day.


Newsletter sign-up

Weekly statistics, charts and insights to help you stay on top of the space industry.